GFSMW_700_temp_234.txt.gz
Temp
12 12 11 11 10 10 9 9 11 11 10 10 10 9 9 9 9 8 8 8 7 7 7 6 6 5 4 4 4 4 4 4 3 3 3 4 3 3 3 3 2 2 1
12 12 12 11 11 10 9 9 9 11 10 10 9 9 9 9 9 8 8 7 7 7 6 6 5 5 4 4 4 4 4 4 3 3 3 3 3 2 2 2 2 1 0
13 12 12 11 11 10 9 9 9 10 11 10 10 9 9 9 9 9 8 8 7 6 6 5 5 4 4 4 4 4 3 3 2 2 2 2 2 1 1 0 0 0 -0
13 12 12 11 11 11 11 10 10 10 10 11 11 9 9 9 9 8 7 6 6 5 5 4 4 4 4 4 3 3 3 2 2 1 1 1 1 1 1 0 -0 -1 -0
12 12 12 12 11 11 11 10 10 9 9 10 10 10 9 8 8 8 7 6 5 5 5 4 4 4 3 3 3 2 2 1 1 1 0 -0 -0 -0 -0 0 -0 -1 -1
12 11 11 11 10 10 11 11 10 10 10 10 9 9 9 8 8 7 6 6 6 5 4 4 4 3 3 2 2 2 1 1 1 0 0 -0 -1 -1 -1 -1 -1 -2 -2
10 9 10 10 10 10 10 10 10 10 10 9 9 9 9 8 7 6 6 6 5 4 4 4 4 3 3 2 2 1 1 1 0 -0 -1 -1 -1 -2 -2 -2 -3 -3 -3
10 10 10 10 10 10 10 9 9 9 9 9 9 9 8 8 7 6 6 5 4 4 4 4 4 3 3 2 1 1 1 0 -0 -1 -1 -1 -2 -2 -4 -4 -4 -4 -4
9 9 9 9 10 10 10 9 9 9 9 8 8 8 8 8 7 6 5 4 4 4 4 4 3 3 2 1 1 -0 -0 -0 -1 -1 -1 -2 -2 -3 -4 -5 -5 -5 -5
8 8 8 9 9 8 9 9 8 8 8 8 8 7 7 7 6 5 5 5 4 4 4 3 3 2 2 1 -0 -1 -1 -1 -1 -2 -2 -2 -3 -4 -5 -6 -6 -6 -6
8 8 8 8 8 7 8 9 8 8 8 7 7 6 6 6 5 5 5 4 4 3 3 2 2 1 0 -0 -1 -2 -1 -1 -2 -2 -3 -3 -4 -4 -6 -6 -6 -6 -6
8 7 7 7 8 8 8 8 7 7 7 6 6 6 5 5 5 4 4 4 3 3 2 2 1 0 -1 -2 -2 -2 -2 -2 -3 -3 -3 -4 -5 -5 -6 -6 -6 -7 -7
8 7 7 7 6 6 5 6 5 5 6 6 4 5 5 5 4 4 3 3 3 2 1 1 -0 -1 -2 -3 -2 -2 -3 -3 -3 -3 -4 -5 -6 -6 -6 -7 -7 -7 -6
8 7 7 7 6 5 5 5 4 5 5 6 5 4 4 4 4 3 3 2 2 0 -1 -1 -2 -3 -3 -4 -3 -3 -3 -3 -3 -4 -5 -6 -6 -7 -7 -7 -7 -7 -7
8 7 7 7 6 6 6 5 5 5 5 5 5 4 4 3 3 2 2 2 -0 -2 -2 -2 -3 -4 -3 -3 -3 -3 -3 -3 -4 -4 -5 -5 -6 -7 -7 -7 -7 -7 -8
8 7 7 7 6 6 5 5 5 5 5 4 5 4 3 3 2 2 1 1 -1 -2 -1 -2 -3 -4 -3 -3 -3 -2 -3 -4 -4 -5 -5 -6 -6 -7 -7 -7 -7 -8 -8
7 7 7 6 6 6 5 5 5 4 3 3 4 3 3 3 3 1 -0 -1 -2 -1 -2 -3 -4 -4 -4 -3 -3 -3 -4 -4 -5 -6 -6 -6 -6 -6 -7 -7 -8 -8 -7
7 7 6 6 5 5 6 5 4 4 3 3 3 2 2 2 2 0 -0 -1 -1 -2 -3 -4 -4 -4 -3 -3 -3 -4 -5 -5 -6 -7 -6 -6 -6 -6 -7 -7 -8 -7 -7
6 6 5 5 5 5 4 4 4 3 3 2 2 2 2 1 1 -0 -1 -2 -2 -4 -5 -4 -5 -4 -4 -4 -4 -5 -5 -5 -6 -7 -7 -7 -7 -7 -7 -7 -7 -8 -7
5 5 6 5 4 4 4 3 2 2 2 2 1 1 1 1 -0 -1 -2 -4 -5 -5 -5 -6 -5 -4 -4 -4 -5 -5 -6 -6 -6 -6 -7 -6 -7 -7 -7 -7 -7 -7 -7
5 5 4 4 4 3 3 2 2 1 1 1 0 0 0 -0 -2 -3 -4 -4 -5 -5 -6 -6 -5 -4 -4 -5 -5 -6 -6 -6 -6 -6 -6 -6 -6 -6 -6 -7 -7 -8 -7
4 4 3 3 3 2 2 1 1 0 0 -0 -1 -1 -1 -2 -3 -5 -5 -5 -5 -6 -5 -5 -5 -5 -5 -6 -6 -6 -6 -6 -6 -6 -6 -6 -6 -6 -7 -7 -8 -8 -8
2 2 2 2 2 1 1 0 0 -0 -0 -1 -2 -2 -3 -5 -5 -6 -6 -6 -6 -6 -5 -6 -5 -6 -6 -6 -7 -7 -7 -7 -7 -7 -7 -7 -7 -7 -8 -8 -8 -8 -8
1 1 1 1 1 -0 -1 -1 -1 -2 -2 -3 -4 -5 -5 -6 -6 -7 -6 -6 -6 -6 -7 -6 -6 -6 -6 -7 -7 -7 -7 -7 -7 -7 -7 -7 -7 -7 -8 -8 -8 -8 -8
-2 -2 -2 -2 -2 -2 -1 -1 -2 -3 -4 -4 -4 -5 -5 -7 -7 -7 -7 -7 -7 -8 -7 -7 -7 -7 -7 -8 -8 -8 -7 -7 -8 -7 -7 -7 -7 -7 -7 -8 -8 -8 -8
-2 -2 -4 -4 -3 -2 -3 -3 -3 -5 -5 -5 -5 -6 -7 -7 -7 -7 -7 -8 -8 -7 -7 -7 -7 -7 -8 -8 -8 -8 -8 -8 -8 -8 -7 -7 -7 -7 -7 -8 -8 -8 -8

GFSMW_700_temp_237.txt.gz
Temp
12 12 12 11 11 11 10 10 11 12 11 10 10 10 9 9 9 9 8 8 8 8 7 7 6 6 6 5 5 5 5 4 4 4 4 3 3 3 3 3 3 2 1
12 12 12 12 11 11 11 11 11 11 11 11 10 10 10 9 9 9 8 8 8 8 7 7 6 6 5 4 4 4 4 4 4 3 3 3 3 3 3 3 2 2 1
13 13 12 12 12 11 11 11 11 11 10 10 10 10 10 10 9 9 9 9 8 8 7 6 6 5 5 4 4 4 4 4 3 3 2 2 2 2 2 2 1 0 0
13 12 12 12 12 11 11 11 11 10 10 10 10 10 10 10 9 9 9 8 8 7 6 6 5 5 4 3 3 4 3 3 2 2 2 2 1 2 2 1 1 -0 -1
13 13 12 12 12 11 10 10 10 10 10 11 11 10 10 10 10 9 8 8 7 7 6 6 5 4 4 2 3 3 3 2 2 1 1 1 1 1 0 1 0 -1 -1
13 13 13 12 12 12 11 11 10 10 10 10 10 10 9 9 9 9 8 8 7 7 6 5 5 4 2 1 3 3 3 2 2 1 0 1 0 -0 -1 -1 -0 -1 -1
13 12 12 12 12 11 11 10 10 10 9 9 9 9 9 9 9 9 8 8 8 6 6 5 4 4 2 3 3 3 2 2 1 1 0 -0 -1 -1 -1 -1 -1 -1 -1
12 12 12 11 11 10 10 10 9 9 9 9 9 8 8 8 8 8 7 8 6 6 5 5 4 3 3 3 3 2 2 1 0 -1 -2 -1 -1 -1 -2 -2 -2 -2 -3
11 11 11 10 10 10 9 9 9 9 9 9 8 8 8 7 7 7 7 7 5 4 4 4 4 3 3 2 2 2 1 0 -1 -2 -2 -1 -1 -2 -2 -3 -3 -5 -4
10 10 10 9 9 9 9 9 9 9 8 8 8 8 7 7 7 7 7 5 6 5 4 4 4 3 2 2 1 1 0 -0 -1 -2 -2 -2 -2 -2 -3 -4 -4 -6 -6
10 9 9 8 9 9 8 8 9 8 8 8 8 7 8 7 6 6 6 6 4 4 4 4 3 2 2 1 1 0 -0 -1 -2 -2 -2 -2 -3 -3 -3 -4 -5 -6 -7
9 9 8 8 8 8 8 8 9 8 8 8 7 6 6 6 6 6 5 5 4 4 4 3 2 1 1 1 -0 -1 -2 -3 -2 -3 -2 -3 -3 -3 -4 -5 -6 -6 -7
9 8 8 8 8 8 7 7 7 7 7 7 7 6 6 6 5 5 4 4 3 3 3 2 1 0 -0 -1 -2 -2 -3 -4 -3 -3 -3 -3 -3 -4 -4 -5 -6 -7 -7
8 8 8 8 8 8 7 7 7 6 6 6 6 6 6 5 5 4 4 3 2 2 2 1 -1 -2 -2 -3 -4 -3 -4 -3 -3 -3 -3 -3 -4 -4 -5 -5 -6 -7 -8
8 8 8 8 8 8 7 7 7 6 5 5 5 6 5 5 5 4 3 2 2 1 1 -0 -1 -1 -2 -3 -4 -3 -4 -4 -4 -3 -3 -3 -4 -5 -5 -6 -7 -7 -8
8 8 8 8 8 8 7 7 6 5 6 5 5 5 4 4 4 3 2 2 1 1 0 -1 -2 -2 -3 -4 -3 -5 -5 -4 -4 -3 -4 -4 -5 -5 -6 -6 -7 -7 -7
7 7 7 7 7 7 7 6 6 6 6 5 4 4 4 4 3 3 2 2 1 -0 -0 -1 -2 -2 -4 -3 -4 -6 -4 -4 -4 -4 -4 -4 -5 -6 -6 -6 -6 -7 -8
6 6 7 7 7 7 6 6 6 6 5 5 4 4 4 3 3 2 1 1 -0 -1 -1 -2 -3 -5 -4 -4 -6 -5 -4 -4 -4 -4 -5 -5 -6 -6 -6 -6 -6 -7 -7
6 6 6 6 6 6 6 6 5 5 4 4 4 3 3 2 2 1 1 -0 -1 -1 -1 -3 -4 -4 -5 -6 -6 -5 -4 -4 -5 -5 -5 -5 -6 -6 -6 -7 -7 -7 -7
5 6 6 6 6 6 5 5 5 4 4 3 3 2 2 2 1 0 -0 -1 -2 -2 -3 -5 -5 -5 -5 -5 -5 -5 -4 -5 -5 -6 -6 -6 -6 -6 -6 -6 -7 -7 -7
5 5 4 5 5 4 4 4 4 3 3 2 1 1 1 1 0 -0 -1 -2 -2 -3 -5 -6 -5 -5 -5 -5 -6 -5 -5 -5 -6 -6 -6 -6 -6 -6 -6 -7 -7 -7 -7
3 5 4 4 4 3 3 3 3 2 2 2 1 1 0 -0 -1 -1 -2 -3 -3 -4 -4 -5 -5 -6 -6 -6 -6 -6 -6 -6 -6 -6 -6 -6 -7 -6 -6 -7 -8 -7 -8
4 1 1 2 1 0 2 1 1 1 1 1 -0 -1 -1 -2 -2 -3 -4 -5 -5 -5 -5 -6 -6 -6 -7 -6 -6 -6 -6 -6 -7 -7 -7 -7 -7 -7 -7 -8 -8 -8 -8
-0 0 -1 -0 -0 -1 -1 -1 -1 -2 -2 -2 -2 -3 -3 -4 -5 -5 -5 -6 -7 -7 -7 -7 -6 -7 -8 -7 -6 -6 -6 -7 -7 -7 -7 -8 -7 -7 -7 -8 -8 -9 -8
-1 -0 -1 -2 -2 -2 -2 -3 -3 -3 -3 -3 -4 -4 -4 -5 -6 -6 -6 -6 -7 -7 -7 -7 -8 -8 -7 -7 -7 -7 -8 -8 -7 -7 -7 -8 -8 -8 -7 -8 -8 -8 -8
-2 -1 -2 -2 -2 -3 -3 -4 -4 -4 -4 -4 -5 -5 -5 -6 -7 -7 -7 -8 -8 -7 -7 -9 -9 -8 -8 -8 -8 -8 -8 -8 -8 -8 -8 -8 -8 -8 -8 -8 -8 -8 -8

GFSMW_700_temp_240.txt.gz
Temp
13 13 12 12 12 12 11 11 11 11 11 11 10 10 10 9 9 9 9 9 8 8 8 8 7 7 7 6 6 5 5 4 4 4 4 4 3 3 3 3 3 2 2
13 13 13 12 12 12 11 11 11 11 11 11 10 10 9 9 9 9 9 9 9 8 8 8 7 6 6 6 6 5 4 4 3 3 3 3 3 3 3 3 3 2 2
13 12 13 13 12 12 12 11 11 11 11 10 10 10 10 9 9 9 9 9 9 8 8 7 7 6 6 6 5 4 4 2 2 2 3 2 2 2 2 2 2 2 1
13 12 13 13 12 12 12 11 11 11 10 10 10 10 10 9 9 8 8 9 8 7 7 7 6 6 6 6 5 4 3 1 2 2 2 2 2 2 2 2 1 1 1
13 13 13 12 12 12 12 11 11 11 10 10 10 9 9 9 9 9 9 8 8 7 7 7 6 6 6 5 3 4 3 2 2 2 2 2 1 1 0 1 1 1 1
13 13 13 12 12 12 12 11 11 11 10 10 10 10 9 9 9 8 8 8 8 8 7 7 6 6 6 5 4 4 2 2 0 1 1 1 1 0 -0 -1 -0 -0 -0
13 13 12 12 12 11 11 11 10 10 10 9 10 9 9 9 9 9 8 8 7 8 8 7 7 6 5 4 5 1 3 1 1 1 1 1 -0 -1 -2 -2 -1 -1 -1
12 12 12 11 11 11 11 10 11 10 10 9 9 8 8 8 8 8 8 8 8 8 7 7 7 5 4 4 4 1 2 1 0 0 0 -0 -1 -2 -2 -3 -3 -2 -1
11 11 11 11 11 11 10 10 10 10 9 9 8 8 7 7 8 7 7 7 7 7 6 6 5 4 4 4 3 0 1 0 -0 -0 -1 -2 -2 -3 -3 -4 -3 -3 -2
10 10 10 10 10 10 10 10 9 9 9 9 9 8 7 7 7 7 7 6 6 5 5 4 4 4 4 4 2 1 0 0 -0 -1 -1 -2 -3 -3 -4 -3 -3 -3 -4
10 10 10 10 9 9 9 9 8 8 8 8 8 7 7 7 7 7 6 6 5 5 4 4 4 3 4 2 3 1 0 0 -0 -1 -2 -3 -3 -5 -3 -3 -3 -4 -6
10 9 9 9 9 8 8 8 8 8 8 8 7 7 7 6 6 6 6 5 5 4 3 4 4 3 3 2 1 1 -0 -0 -1 -1 -2 -3 -4 -3 -3 -3 -4 -5 -5
9 9 9 8 8 8 8 8 8 8 8 7 7 6 6 6 6 6 6 6 5 4 4 3 3 2 2 1 1 -0 -1 -1 -1 -2 -3 -3 -4 -3 -3 -4 -4 -5 -5
8 8 8 8 8 8 8 8 8 8 7 7 7 6 6 6 6 6 5 5 5 6 3 2 1 1 1 1 0 -1 -2 -2 -3 -3 -4 -4 -4 -4 -4 -4 -5 -5 -5
7 8 8 8 8 7 7 7 7 7 7 7 6 6 5 5 5 5 5 5 4 4 3 3 1 0 1 -0 -1 -1 -2 -3 -3 -4 -4 -5 -4 -4 -4 -4 -5 -5 -6
6 6 6 7 7 7 7 8 8 7 7 6 6 5 5 5 5 5 5 4 4 3 2 1 -0 0 -0 -0 -0 -2 -3 -3 -3 -4 -4 -4 -4 -5 -5 -5 -5 -6 -6
6 6 6 6 6 7 7 7 7 7 7 6 6 5 5 5 5 4 4 4 3 2 2 0 -0 -1 -1 -1 -1 -3 -4 -4 -4 -4 -4 -5 -5 -5 -5 -5 -6 -6 -6
6 6 6 6 6 6 6 6 6 6 6 6 5 5 5 4 4 4 4 3 2 1 0 -0 -0 -1 -1 -1 -2 -3 -3 -4 -4 -4 -5 -5 -6 -6 -6 -6 -6 -6 -6
5 6 5 6 6 5 5 5 6 6 6 6 5 5 5 4 4 3 3 2 1 0 -0 -0 -1 -1 -2 -2 -2 -3 -4 -4 -4 -5 -5 -5 -6 -6 -6 -6 -6 -6 -6
5 6 5 4 4 4 4 5 4 3 3 2 3 4 4 3 3 2 2 1 1 -0 -1 -1 -1 -3 -2 -2 -3 -4 -5 -5 -5 -5 -6 -6 -6 -6 -6 -6 -6 -6 -7
4 4 4 4 4 4 4 4 4 2 2 2 2 0 1 1 1 1 1 0 -0 -2 -2 -3 -3 -2 -2 -3 -5 -5 -5 -5 -6 -6 -6 -6 -6 -6 -6 -6 -6 -6 -6
3 3 4 3 3 2 2 2 2 2 1 0 1 1 1 -0 -1 -2 -2 -1 -2 -2 -3 -2 -2 -3 -4 -5 -5 -5 -5 -6 -6 -6 -6 -6 -6 -7 -7 -7 -7 -7 -6
1 1 1 1 1 1 0 1 1 0 -0 -0 -1 -1 -1 -1 -1 -2 -3 -3 -3 -3 -4 -4 -5 -6 -6 -6 -6 -6 -7 -6 -7 -7 -7 -7 -7 -7 -7 -7 -7 -7 -7
1 1 0 -0 -0 0 1 -0 -0 -0 0 -1 -1 -1 -1 -2 -3 -4 -4 -4 -5 -5 -6 -5 -6 -6 -7 -7 -7 -9 -8 -7 -7 -7 -7 -7 -7 -7 -8 -7 -7 -7 -8
0 -0 -1 -1 -3 -3 -3 -3 -3 -3 -4 -3 -3 -3 -3 -4 -4 -5 -5 -5 -5 -6 -6 -7 -7 -7 -7 -8 -9 -10 -8 -8 -8 -8 -8 -8 -7 -8 -8 -8 -8 -8 -8
-3 -3 -3 -4 -4 -4 -4 -4 -5 -5 -5 -6 -5 -5 -5 -5 -5 -6 -6 -6 -6 -7 -7 -8 -8 -8 -8 -10 -11 -9 -9 -9 -8 -8 -8 -8 -8 -8 -8 -8 -8 -8 -9

GFSMW_700_temp_246.txt.gz
Temp
12 12 12 12 13 12 12 12 11 11 11 10 10 10 10 10 10 9 9 9 9 9 8 8 8 8 8 8 7 7 7 7 6 6 6 5 5 4 3 3 2 3 2
12 12 12 12 12 12 12 12 12 11 11 11 11 10 10 10 9 9 9 9 8 8 7 7 7 7 7 7 7 6 6 6 6 5 5 5 4 3 2 2 2 -1 1
12 12 13 12 13 12 12 12 12 12 11 11 11 11 10 10 10 10 9 8 7 7 7 7 6 6 6 6 6 6 5 5 5 4 4 4 3 3 1 1 0 2 1
13 13 13 13 13 13 13 12 12 12 12 11 11 11 11 10 10 9 8 8 7 7 7 6 6 6 6 6 6 6 5 4 4 4 3 3 3 3 1 1 -0 0 -0
12 13 13 13 13 12 13 12 12 12 12 11 11 11 11 10 9 9 8 7 7 7 7 7 7 7 6 5 5 5 4 4 4 4 4 3 3 2 2 1 0 0 0
12 12 13 13 12 12 13 12 12 12 11 11 11 10 10 10 9 9 8 7 7 8 7 7 7 7 6 6 4 5 4 4 4 4 5 4 3 2 1 1 -2 0 2
11 12 12 12 12 12 12 11 11 11 11 11 11 11 10 10 9 8 8 8 8 8 8 7 8 7 7 6 6 4 4 4 4 5 5 3 2 1 2 3 1 1 1
10 10 10 10 10 10 10 10 10 10 10 10 10 10 9 9 9 9 8 8 7 7 7 7 8 7 6 6 6 5 5 3 4 3 4 3 4 2 1 1 0 -0 -0
9 9 9 9 9 9 9 9 9 9 9 9 9 10 9 8 8 8 8 8 7 7 7 7 7 7 6 6 6 4 5 4 3 3 3 3 3 2 0 -1 -0 -1 -2
9 10 9 9 9 9 9 9 8 8 8 8 9 9 9 8 8 7 7 7 7 7 6 6 6 6 6 5 4 4 4 4 3 3 2 2 1 0 0 -0 -1 -2 -2
9 9 9 9 9 9 9 8 9 8 8 8 8 8 8 8 8 7 7 7 6 6 6 6 6 6 6 6 5 5 4 3 3 3 2 1 1 0 -0 -1 -1 -3 -2
9 9 9 9 9 9 9 8 8 8 8 8 8 8 8 7 7 7 7 6 6 6 6 5 5 5 6 5 5 5 4 4 2 2 2 1 0 -0 0 -1 -2 -2 -2
9 9 9 9 8 7 7 8 8 8 8 8 8 8 7 7 7 7 7 6 6 6 5 5 5 5 5 5 5 4 4 2 2 1 0 -0 0 -0 -1 -2 -2 -1 -3
9 8 9 8 8 6 6 7 7 7 8 8 7 7 7 7 7 7 6 6 6 6 5 5 4 4 4 4 4 3 3 1 2 0 -0 -1 -0 -1 -1 -1 -2 -2 -3
8 8 8 7 6 6 6 6 6 6 7 7 7 7 6 6 7 6 6 6 6 5 5 4 4 3 3 3 3 3 3 1 -1 -1 -0 -1 -1 -1 -2 -2 -2 -3 -3
7 6 6 5 5 5 5 6 6 6 6 6 6 6 6 6 6 7 6 6 4 4 4 4 4 3 3 2 2 1 1 -1 -1 -2 -2 -2 -2 -2 -2 -2 -3 -3 -4
5 4 3 4 4 5 5 5 5 5 6 6 5 6 6 6 6 6 6 5 4 4 4 4 3 3 2 2 1 1 -0 -1 -0 -1 -2 -1 -1 -2 -2 -3 -3 -4 -4
4 3 3 4 4 4 4 4 4 5 5 5 5 5 4 4 4 4 5 5 5 4 4 3 3 3 2 1 0 1 -0 -1 -1 -1 -1 -1 -1 -2 -3 -3 -4 -4 -5
3 3 3 3 3 2 3 4 3 4 4 4 4 4 4 4 3 3 3 2 3 3 3 3 2 2 1 -0 -0 -1 -0 -1 -1 -1 -1 -2 -4 -3 -4 -4 -4 -6 -7
2 2 2 1 1 1 2 3 3 3 4 4 4 4 3 3 3 2 2 2 1 1 1 1 0 -0 -1 -0 0 -0 -0 -1 -2 -3 -5 -5 -4 -5 -5 -5 -5 -7 -7
2 2 1 2 2 1 2 2 2 2 3 3 3 3 3 2 2 1 1 1 0 0 0 -0 -1 -1 -2 -1 -1 -1 -1 -1 -3 -5 -5 -5 -5 -5 -5 -5 -7 -8 -6
1 -0 -0 -0 -1 1 1 2 2 2 2 2 2 1 1 1 1 1 -0 -1 -1 -1 -1 -1 -2 -2 -2 -1 -2 -3 -4 -5 -6 -6 -6 -6 -6 -6 -6 -7 -9 -7 -7
0 -0 -1 -1 0 0 0 0 0 0 -0 -0 -0 -0 -1 -1 -1 -2 -3 -3 -3 -3 -3 -4 -3 -3 -3 -2 -3 -5 -7 -7 -6 -7 -7 -6 -6 -6 -7 -10 -9 -7 -7
-1 -1 -1 -1 -1 -1 -1 -1 -1 -1 -2 -2 -2 -3 -3 -3 -4 -4 -5 -5 -5 -5 -5 -5 -4 -4 -6 -7 -8 -8 -7 -7 -7 -7 -7 -7 -7 -7 -9 -9 -8 -8 -8
-1 -1 -2 -3 -3 -3 -3 -3 -4 -4 -4 -4 -4 -5 -5 -5 -5 -6 -6 -6 -7 -6 -7 -6 -7 -8 -8 -8 -8 -8 -8 -8 -8 -8 -8 -8 -8 -9 -10 -9 -8 -8 -8
-4 -4 -4 -4 -4 -5 -5 -5 -5 -5 -5 -5 -5 -5 -6 -6 -6 -8 -8 -8 -8 -8 -8 -8 -8 -8 -9 -9 -9 -9 -9 -9 -9 -9 -9 -10 -10 -10 -10 -9 -9 -8 -8